TimePDT,TemperatureF,Dew PointF,Humidity,Sea Level PressureIn,VisibilityMPH,Wind Direction,Wind SpeedMPH,Gust SpeedMPH,PrecipitationIn,Events,Conditions,WindDirDegrees,DateUTC
12:53 AM,62.1,57.9,86,29.70,10.0,SSW,6.9,-,N/A,,Overcast,210,2012-10-16 07:53:00
1:53 AM,59.0,55.0,87,29.75,10.0,WNW,8.1,-,N/A,,Partly Cloudy,290,2012-10-16 08:53:00
2:53 AM,55.9,52.0,87,29.79,10.0,North,4.6,-,N/A,,Clear,10,2012-10-16 09:53:00
3:53 AM,55.9,48.9,77,29.84,10.0,NNW,11.5,19.6,N/A,,Overcast,330,2012-10-16 10:53:00
5:53 AM,55.0,48.0,77,29.93,10.0,West,6.9,-,0.00,,Overcast,280,2012-10-16 12:53:00
6:53 AM,53.1,48.0,83,29.97,4.0,NNW,8.1,-,0.04,Rain,Heavy Rain,330,2012-10-16 13:53:00
7:53 AM,50.0,48.9,96,30.01,10.0,Calm,Calm,-,0.02,,Overcast,0,2012-10-16 14:53:00
7:55 AM,51.8,48.2,88,30.01,10.0,Calm,Calm,-,N/A,,Scattered Clouds,0,2012-10-16 14:55:00
8:53 AM,52.0,50.0,93,30.07,10.0,Calm,Calm,-,N/A,,Scattered Clouds,0,2012-10-16 15:53:00
9:53 AM,55.9,48.0,75,30.11,10.0,Calm,Calm,-,N/A,,Scattered Clouds,0,2012-10-16 16:53:00
10:53 AM,57.9,43.0,58,30.14,10.0,WNW,9.2,-,N/A,,Scattered Clouds,290,2012-10-16 17:53:00
11:53 AM,57.0,44.1,62,30.17,8.0,NNW,13.8,18.4,0.00,Rain,Light Rain,330,2012-10-16 18:53:00
12:53 PM,57.9,45.0,62,30.18,10.0,Variable,4.6,-,0.00,,Scattered Clouds,0,2012-10-16 19:53:00
1:53 PM,60.1,42.1,51,30.18,10.0,Calm,Calm,-,N/A,,Scattered Clouds,0,2012-10-16 20:53:00
2:53 PM,60.1,43.0,53,30.19,10.0,NNW,13.8,-,N/A,,Overcast,330,2012-10-16 21:53:00
3:53 PM,60.1,43.0,53,30.20,10.0,Variable,5.8,-,0.00,,Mostly Cloudy,0,2012-10-16 22:53:00
4:53 PM,60.1,42.1,51,30.21,10.0,NW,5.8,-,N/A,,Mostly Cloudy,310,2012-10-16 23:53:00
5:53 PM,54.0,44.1,69,30.24,10.0,NW,11.5,-,0.00,Rain,Light Rain,320,2012-10-17 00:53:00
6:53 PM,54.0,44.1,69,30.26,10.0,West,3.5,-,0.00,,Overcast,260,2012-10-17 01:53:00
7:53 PM,53.1,44.1,71,30.27,10.0,West,5.8,-,N/A,,Overcast,280,2012-10-17 02:53:00
8:53 PM,50.0,44.1,80,30.28,10.0,NNW,3.5,-,N/A,,Mostly Cloudy,340,2012-10-17 03:53:00
9:53 PM,46.0,43.0,89,30.28,10.0,Calm,Calm,-,N/A,,Clear,0,2012-10-17 04:53:00
10:53 PM,44.1,43.0,96,30.29,10.0,NW,3.5,-,N/A,,Clear,310,2012-10-17 05:53:00
11:53 PM,43.0,41.0,93,30.31,10.0,Calm,Calm,-,N/A,,Clear,0,2012-10-17 06:53:00